#datetime,building,power
2024-01-03T00:00:00,hld,3.06
2024-01-03T00:01:00,hld,3.22
2024-01-03T00:02:00,hld,3.17
2024-01-03T00:03:00,hld,3.22
2024-01-03T00:04:00,hld,3.22
2024-01-03T00:05:00,hld,3.20
2024-01-03T00:06:00,hld,3.20
2024-01-03T00:07:00,hld,3.20
2024-01-03T00:08:00,hld,3.21
2024-01-03T00:09:00,hld,3.23
2024-01-03T00:10:00,hld,3.24
2024-01-03T00:11:00,hld,3.27
2024-01-03T00:12:00,hld,3.19
2024-01-03T00:13:00,hld,3.13
2024-01-03T00:14:00,hld,3.12
2024-01-03T00:15:00,hld,2.98
2024-01-03T00:16:00,hld,2.98
2024-01-03T00:17:00,hld,2.98
2024-01-03T00:18:00,hld,2.99
2024-01-03T00:19:00,hld,2.99
2024-01-03T00:20:00,hld,3.00
2024-01-03T00:21:00,hld,2.99
2024-01-03T00:22:00,hld,3.00
2024-01-03T00:23:00,hld,3.02
2024-01-03T00:24:00,hld,3.12
2024-01-03T00:25:00,hld,2.99
2024-01-03T00:26:00,hld,3.01
2024-01-03T00:27:00,hld,3.03
2024-01-03T00:28:00,hld,3.06
2024-01-03T00:29:00,hld,3.05
2024-01-03T00:30:00,hld,3.09
2024-01-03T00:31:00,hld,3.02
2024-01-03T00:32:00,hld,3.01
2024-01-03T00:33:00,hld,3.08
2024-01-03T00:34:00,hld,3.06
2024-01-03T00:35:00,hld,3.06
2024-01-03T00:36:00,hld,3.05
2024-01-03T00:37:00,hld,3.06
2024-01-03T00:38:00,hld,3.06
2024-01-03T00:39:00,hld,3.07
2024-01-03T00:40:00,hld,3.06
2024-01-03T00:41:00,hld,3.06
2024-01-03T00:42:00,hld,3.01
2024-01-03T00:43:00,hld,3.01
2024-01-03T00:44:00,hld,3.67
2024-01-03T00:45:00,hld,3.01
2024-01-03T00:46:00,hld,2.98
2024-01-03T00:47:00,hld,3.02
2024-01-03T00:48:00,hld,3.01
2024-01-03T00:49:00,hld,3.02
2024-01-03T00:50:00,hld,3.15
2024-01-03T00:51:00,hld,3.13
2024-01-03T00:52:00,hld,3.14
2024-01-03T00:53:00,hld,3.13
2024-01-03T00:54:00,hld,3.80
2024-01-03T00:55:00,hld,3.17
2024-01-03T00:56:00,hld,3.16
2024-01-03T00:57:00,hld,3.25
2024-01-03T00:58:00,hld,3.05
2024-01-03T00:59:00,hld,3.07
2024-01-03T01:00:00,hld,3.06
2024-01-03T01:01:00,hld,3.05
2024-01-03T01:02:00,hld,3.08
2024-01-03T01:03:00,hld,3.09
2024-01-03T01:04:00,hld,3.08
2024-01-03T01:05:00,hld,3.05
2024-01-03T01:06:00,hld,3.00
2024-01-03T01:07:00,hld,3.00
2024-01-03T01:08:00,hld,3.02
2024-01-03T01:09:00,hld,3.00
2024-01-03T01:10:00,hld,3.00
2024-01-03T01:11:00,hld,3.00
2024-01-03T01:12:00,hld,3.02
2024-01-03T01:13:00,hld,3.00
2024-01-03T01:14:00,hld,3.17
2024-01-03T01:15:00,hld,3.15
2024-01-03T01:16:00,hld,3.15
2024-01-03T01:17:00,hld,3.14
2024-01-03T01:18:00,hld,3.13
2024-01-03T01:19:00,hld,3.19
2024-01-03T01:20:00,hld,3.20
2024-01-03T01:21:00,hld,3.20
2024-01-03T01:22:00,hld,3.19
2024-01-03T01:23:00,hld,3.19
2024-01-03T01:24:00,hld,3.19
2024-01-03T01:25:00,hld,3.18
2024-01-03T01:26:00,hld,3.19
2024-01-03T01:27:00,hld,3.21
2024-01-03T01:28:00,hld,3.06
2024-01-03T01:29:00,hld,3.07
2024-01-03T01:30:00,hld,3.08
2024-01-03T01:31:00,hld,4.59
2024-01-03T01:32:00,hld,3.08
2024-01-03T01:33:00,hld,3.02
2024-01-03T01:34:00,hld,3.68
2024-01-03T01:35:00,hld,3.36
2024-01-03T01:36:00,hld,11.62
2024-01-03T01:37:00,hld,11.43
2024-01-03T01:38:00,hld,11.30
2024-01-03T01:39:00,hld,11.23
2024-01-03T01:40:00,hld,11.11
2024-01-03T01:41:00,hld,3.09
2024-01-03T01:42:00,hld,3.08
2024-01-03T01:43:00,hld,3.09
2024-01-03T01:44:00,hld,3.16
2024-01-03T01:45:00,hld,3.18
2024-01-03T01:46:00,hld,3.17
2024-01-03T01:47:00,hld,3.15
2024-01-03T01:48:00,hld,3.15
2024-01-03T01:49:00,hld,3.12
2024-01-03T01:50:00,hld,3.18
2024-01-03T01:51:00,hld,3.15
2024-01-03T01:52:00,hld,3.14
2024-01-03T01:53:00,hld,3.14
2024-01-03T01:54:00,hld,3.14
2024-01-03T01:55:00,hld,3.15
2024-01-03T01:56:00,hld,3.14
2024-01-03T01:57:00,hld,3.18
2024-01-03T01:58:00,hld,3.16
2024-01-03T01:59:00,hld,3.07
2024-01-03T02:00:00,hld,3.03
2024-01-03T02:01:00,hld,3.01
2024-01-03T02:02:00,hld,3.01
2024-01-03T02:03:00,hld,3.02
2024-01-03T02:04:00,hld,3.13
2024-01-03T02:05:00,hld,3.17
2024-01-03T02:06:00,hld,3.16
2024-01-03T02:07:00,hld,3.16
2024-01-03T02:08:00,hld,3.15
2024-01-03T02:09:00,hld,3.13
2024-01-03T02:10:00,hld,3.13
2024-01-03T02:11:00,hld,3.00
2024-01-03T02:12:00,hld,2.99
2024-01-03T02:13:00,hld,2.99
2024-01-03T02:14:00,hld,3.04
2024-01-03T02:15:00,hld,3.67
2024-01-03T02:16:00,hld,3.06
2024-01-03T02:17:00,hld,3.04
2024-01-03T02:18:00,hld,3.04
2024-01-03T02:19:00,hld,3.07
2024-01-03T02:20:00,hld,3.09
2024-01-03T02:21:00,hld,3.06
2024-01-03T02:22:00,hld,3.07
2024-01-03T02:23:00,hld,3.04
2024-01-03T02:24:00,hld,3.06
2024-01-03T02:25:00,hld,3.06
2024-01-03T02:26:00,hld,3.01
2024-01-03T02:27:00,hld,3.20
2024-01-03T02:28:00,hld,3.12
2024-01-03T02:29:00,hld,3.15
2024-01-03T02:30:00,hld,3.15
2024-01-03T02:31:00,hld,3.12
2024-01-03T02:32:00,hld,3.15
2024-01-03T02:33:00,hld,4.25
2024-01-03T02:34:00,hld,3.59
2024-01-03T02:35:00,hld,3.14
2024-01-03T02:36:00,hld,3.12
2024-01-03T02:37:00,hld,3.54
2024-01-03T02:38:00,hld,3.11
2024-01-03T02:39:00,hld,3.13
2024-01-03T02:40:00,hld,3.06
2024-01-03T02:41:00,hld,3.27
2024-01-03T02:42:00,hld,3.05
2024-01-03T02:43:00,hld,3.03
2024-01-03T02:44:00,hld,3.06
2024-01-03T02:45:00,hld,3.06
2024-01-03T02:46:00,hld,3.04
2024-01-03T02:47:00,hld,3.07
2024-01-03T02:48:00,hld,3.03
2024-01-03T02:49:00,hld,3.50
2024-01-03T02:50:00,hld,3.06
2024-01-03T02:51:00,hld,2.99
2024-01-03T02:52:00,hld,3.01
2024-01-03T02:53:00,hld,2.98
2024-01-03T02:54:00,hld,3.01
2024-01-03T02:55:00,hld,3.01
2024-01-03T02:56:00,hld,3.00
2024-01-03T02:57:00,hld,3.10
2024-01-03T02:58:00,hld,3.01
2024-01-03T02:59:00,hld,2.99
2024-01-03T03:00:00,hld,3.02
2024-01-03T03:01:00,hld,3.02
2024-01-03T03:02:00,hld,3.01
2024-01-03T03:03:00,hld,3.00
2024-01-03T03:04:00,hld,3.08
2024-01-03T03:05:00,hld,3.08
2024-01-03T03:06:00,hld,3.08
2024-01-03T03:07:00,hld,3.11
2024-01-03T03:08:00,hld,3.12
2024-01-03T03:09:00,hld,3.08
2024-01-03T03:10:00,hld,4.61
2024-01-03T03:11:00,hld,3.10
2024-01-03T03:12:00,hld,3.09
2024-01-03T03:13:00,hld,3.06
2024-01-03T03:14:00,hld,3.02
2024-01-03T03:15:00,hld,3.15
2024-01-03T03:16:00,hld,3.15
2024-01-03T03:17:00,hld,3.14
2024-01-03T03:18:00,hld,3.14
2024-01-03T03:19:00,hld,3.14
2024-01-03T03:20:00,hld,3.17
2024-01-03T03:21:00,hld,3.14
2024-01-03T03:22:00,hld,3.29
2024-01-03T03:23:00,hld,4.69
2024-01-03T03:24:00,hld,3.72
2024-01-03T03:25:00,hld,3.78
2024-01-03T03:26:00,hld,3.77
2024-01-03T03:27:00,hld,3.75
2024-01-03T03:28:00,hld,3.75
2024-01-03T03:29:00,hld,3.75
2024-01-03T03:30:00,hld,3.74
2024-01-03T03:31:00,hld,4.01
2024-01-03T03:32:00,hld,3.74
2024-01-03T03:33:00,hld,3.76
2024-01-03T03:34:00,hld,3.74
2024-01-03T03:35:00,hld,3.59
2024-01-03T03:36:00,hld,3.75
2024-01-03T03:37:00,hld,3.49
2024-01-03T03:38:00,hld,3.43
2024-01-03T03:39:00,hld,3.31
2024-01-03T03:40:00,hld,3.34
2024-01-03T03:41:00,hld,3.33
2024-01-03T03:42:00,hld,3.33
2024-01-03T03:43:00,hld,3.19
2024-01-03T03:44:00,hld,3.16
2024-01-03T03:45:00,hld,3.89
2024-01-03T03:46:00,hld,3.18
2024-01-03T03:47:00,hld,3.18
2024-01-03T03:48:00,hld,3.49
2024-01-03T03:49:00,hld,3.20
2024-01-03T03:50:00,hld,3.09
2024-01-03T03:51:00,hld,3.08
2024-01-03T03:52:00,hld,3.19
2024-01-03T03:53:00,hld,3.12
2024-01-03T03:54:00,hld,3.13
2024-01-03T03:55:00,hld,3.11
2024-01-03T03:56:00,hld,3.11
2024-01-03T03:57:00,hld,3.14
2024-01-03T03:58:00,hld,3.83
2024-01-03T03:59:00,hld,3.11
2024-01-03T04:00:00,hld,3.12
2024-01-03T04:01:00,hld,3.11
2024-01-03T04:02:00,hld,3.11
2024-01-03T04:03:00,hld,3.15
2024-01-03T04:04:00,hld,3.06
2024-01-03T04:05:00,hld,3.09
2024-01-03T04:06:00,hld,3.04
2024-01-03T04:07:00,hld,3.06
2024-01-03T04:08:00,hld,3.06
2024-01-03T04:09:00,hld,3.06
2024-01-03T04:10:00,hld,3.06
2024-01-03T04:11:00,hld,3.06
2024-01-03T04:12:00,hld,3.03
2024-01-03T04:13:00,hld,3.05
2024-01-03T04:14:00,hld,3.05
2024-01-03T04:15:00,hld,3.06
2024-01-03T04:16:00,hld,3.06
2024-01-03T04:17:00,hld,3.07
2024-01-03T04:18:00,hld,3.07
2024-01-03T04:19:00,hld,3.08
2024-01-03T04:20:00,hld,3.77
2024-01-03T04:21:00,hld,3.10
2024-01-03T04:22:00,hld,3.13
2024-01-03T04:23:00,hld,3.09
2024-01-03T04:24:00,hld,3.41
2024-01-03T04:25:00,hld,3.09
2024-01-03T04:26:00,hld,3.08
2024-01-03T04:27:00,hld,3.22
2024-01-03T04:28:00,hld,3.21
2024-01-03T04:29:00,hld,3.23
2024-01-03T04:30:00,hld,3.21
2024-01-03T04:31:00,hld,3.21
2024-01-03T04:32:00,hld,3.14
2024-01-03T04:33:00,hld,3.16
2024-01-03T04:34:00,hld,3.02
2024-01-03T04:35:00,hld,3.03
2024-01-03T04:36:00,hld,3.02
2024-01-03T04:37:00,hld,3.01
2024-01-03T04:38:00,hld,3.04
2024-01-03T04:39:00,hld,3.03
2024-01-03T04:40:00,hld,3.04
2024-01-03T04:41:00,hld,3.04
2024-01-03T04:42:00,hld,3.03
2024-01-03T04:43:00,hld,3.04
2024-01-03T04:44:00,hld,3.47
2024-01-03T04:45:00,hld,3.05
2024-01-03T04:46:00,hld,3.04
2024-01-03T04:47:00,hld,3.08
2024-01-03T04:48:00,hld,3.20
2024-01-03T04:49:00,hld,4.68
2024-01-03T04:50:00,hld,3.20
2024-01-03T04:51:00,hld,3.20
2024-01-03T04:52:00,hld,3.17
2024-01-03T04:53:00,hld,3.17
2024-01-03T04:54:00,hld,3.19
2024-01-03T04:55:00,hld,3.20
2024-01-03T04:56:00,hld,3.19
2024-01-03T04:57:00,hld,3.22
2024-01-03T04:58:00,hld,3.18
2024-01-03T04:59:00,hld,3.17
2024-01-03T05:00:00,hld,3.12
2024-01-03T05:01:00,hld,3.01
2024-01-03T05:02:00,hld,3.00
2024-01-03T05:03:00,hld,3.00
2024-01-03T05:04:00,hld,2.97
2024-01-03T05:05:00,hld,3.00
2024-01-03T05:06:00,hld,2.99
2024-01-03T05:07:00,hld,2.99
2024-01-03T05:08:00,hld,3.03
2024-01-03T05:09:00,hld,2.99
2024-01-03T05:10:00,hld,3.45
2024-01-03T05:11:00,hld,2.99
2024-01-03T05:12:00,hld,3.01
2024-01-03T05:13:00,hld,11.57
2024-01-03T05:14:00,hld,11.38
2024-01-03T05:15:00,hld,11.24
2024-01-03T05:16:00,hld,11.11
2024-01-03T05:17:00,hld,6.15
2024-01-03T05:18:00,hld,3.06
2024-01-03T05:19:00,hld,3.06
2024-01-03T05:20:00,hld,3.02
2024-01-03T05:21:00,hld,3.04
2024-01-03T05:22:00,hld,3.05
2024-01-03T05:23:00,hld,3.05
2024-01-03T05:24:00,hld,3.07
2024-01-03T05:25:00,hld,3.03
2024-01-03T05:26:00,hld,2.98
2024-01-03T05:27:00,hld,2.99
2024-01-03T05:28:00,hld,2.99
2024-01-03T05:29:00,hld,3.01
2024-01-03T05:30:00,hld,3.00
2024-01-03T05:31:00,hld,7.05
2024-01-03T05:32:00,hld,7.05
2024-01-03T05:33:00,hld,7.06
2024-01-03T05:34:00,hld,7.68
2024-01-03T05:35:00,hld,7.01
2024-01-03T05:36:00,hld,7.26
2024-01-03T05:37:00,hld,3.81
2024-01-03T05:38:00,hld,3.22
2024-01-03T05:39:00,hld,3.29
2024-01-03T05:40:00,hld,3.22
2024-01-03T05:41:00,hld,3.26
2024-01-03T05:42:00,hld,3.25
2024-01-03T05:43:00,hld,3.23
2024-01-03T05:44:00,hld,3.09
2024-01-03T05:45:00,hld,3.08
2024-01-03T05:46:00,hld,3.08
2024-01-03T05:47:00,hld,3.13
2024-01-03T05:48:00,hld,3.11
2024-01-03T05:49:00,hld,3.10
2024-01-03T05:50:00,hld,3.10
2024-01-03T05:51:00,hld,3.10
2024-01-03T05:52:00,hld,3.10
2024-01-03T05:53:00,hld,3.16
2024-01-03T05:54:00,hld,3.15
2024-01-03T05:55:00,hld,3.10
2024-01-03T05:56:00,hld,3.14
2024-01-03T05:57:00,hld,3.19
2024-01-03T05:58:00,hld,3.28
2024-01-03T05:59:00,hld,3.33
2024-01-03T06:00:00,hld,4.07
2024-01-03T06:01:00,hld,3.64
2024-01-03T06:02:00,hld,3.63
2024-01-03T06:03:00,hld,3.63
2024-01-03T06:04:00,hld,3.59
2024-01-03T06:05:00,hld,3.58
2024-01-03T06:06:00,hld,3.59
2024-01-03T06:07:00,hld,3.58
2024-01-03T06:08:00,hld,3.56
2024-01-03T06:09:00,hld,3.60
2024-01-03T06:10:00,hld,3.57
2024-01-03T06:11:00,hld,3.45
2024-01-03T06:12:00,hld,3.45
2024-01-03T06:13:00,hld,4.16
2024-01-03T06:14:00,hld,3.91
2024-01-03T06:15:00,hld,3.46
2024-01-03T06:16:00,hld,3.47
2024-01-03T06:17:00,hld,3.47
2024-01-03T06:18:00,hld,3.46
2024-01-03T06:19:00,hld,3.46
2024-01-03T06:20:00,hld,3.48
2024-01-03T06:21:00,hld,3.52
2024-01-03T06:22:00,hld,3.52
2024-01-03T06:23:00,hld,4.67
2024-01-03T06:24:00,hld,4.67
2024-01-03T06:25:00,hld,6.16
2024-01-03T06:26:00,hld,6.13
2024-01-03T06:27:00,hld,6.23
2024-01-03T06:28:00,hld,7.96
2024-01-03T06:29:00,hld,4.94
2024-01-03T06:30:00,hld,4.98
2024-01-03T06:31:00,hld,4.90
2024-01-03T06:32:00,hld,4.88
2024-01-03T06:33:00,hld,4.86
2024-01-03T06:34:00,hld,4.79
2024-01-03T06:35:00,hld,4.82
2024-01-03T06:36:00,hld,5.45
2024-01-03T06:37:00,hld,4.75
2024-01-03T06:38:00,hld,4.69
2024-01-03T06:39:00,hld,4.53
2024-01-03T06:40:00,hld,4.50
2024-01-03T06:41:00,hld,4.46
2024-01-03T06:42:00,hld,4.45
2024-01-03T06:43:00,hld,4.48
2024-01-03T06:44:00,hld,4.45
2024-01-03T06:45:00,hld,4.48
2024-01-03T06:46:00,hld,4.36
2024-01-03T06:47:00,hld,4.15
2024-01-03T06:49:00,hld,4.11
2024-01-03T06:50:00,hld,4.18
2024-01-03T06:51:00,hld,4.44
2024-01-03T06:53:00,hld,4.18
2024-01-03T06:54:00,hld,4.05
2024-01-03T06:56:00,hld,4.04
2024-01-03T06:57:00,hld,4.05
2024-01-03T06:58:00,hld,4.01
2024-01-03T06:59:00,hld,3.98
2024-01-03T07:00:00,hld,4.04
2024-01-03T07:01:00,hld,4.12
2024-01-03T07:02:00,hld,6.51
2024-01-03T07:03:00,hld,6.82
2024-01-03T07:04:00,hld,8.17
2024-01-03T07:05:00,hld,8.20
2024-01-03T07:06:00,hld,8.22
2024-01-03T07:07:00,hld,8.14
2024-01-03T07:08:00,hld,8.15
2024-01-03T07:09:00,hld,8.21
2024-01-03T07:10:00,hld,8.30
2024-01-03T07:11:00,hld,8.30
2024-01-03T07:12:00,hld,8.48
2024-01-03T07:13:00,hld,8.25
2024-01-03T07:14:00,hld,8.27
2024-01-03T07:15:00,hld,8.22
2024-01-03T07:16:00,hld,8.31
2024-01-03T07:17:00,hld,8.07
2024-01-03T07:18:00,hld,8.06
2024-01-03T07:19:00,hld,8.03
2024-01-03T07:20:00,hld,7.98
2024-01-03T07:21:00,hld,7.99
2024-01-03T07:22:00,hld,7.99
2024-01-03T07:23:00,hld,7.92
2024-01-03T07:24:00,hld,7.92
2024-01-03T07:25:00,hld,8.12
2024-01-03T07:26:00,hld,7.79
2024-01-03T07:27:00,hld,8.02
2024-01-03T07:28:00,hld,8.07
2024-01-03T07:29:00,hld,8.08
2024-01-03T07:30:00,hld,8.11
2024-01-03T07:31:00,hld,8.09
2024-01-03T07:32:00,hld,8.12
2024-01-03T07:33:00,hld,8.34
2024-01-03T07:34:00,hld,7.96
2024-01-03T07:35:00,hld,7.95
2024-01-03T07:36:00,hld,8.00
2024-01-03T07:37:00,hld,8.50
2024-01-03T07:38:00,hld,7.94
2024-01-03T07:39:00,hld,7.92
2024-01-03T07:40:00,hld,7.85
2024-01-03T07:41:00,hld,7.83
2024-01-03T07:42:00,hld,7.86
2024-01-03T07:43:00,hld,7.84
2024-01-03T07:44:00,hld,7.89
2024-01-03T07:45:00,hld,7.89
2024-01-03T07:46:00,hld,8.08
2024-01-03T07:47:00,hld,7.98
2024-01-03T07:48:00,hld,7.98
2024-01-03T07:49:00,hld,8.07
2024-01-03T07:50:00,hld,8.06
2024-01-03T07:51:00,hld,8.14
2024-01-03T07:52:00,hld,8.11
2024-01-03T07:53:00,hld,8.12
2024-01-03T07:54:00,hld,7.99
2024-01-03T07:55:00,hld,7.99
2024-01-03T07:56:00,hld,7.98
2024-01-03T07:57:00,hld,7.94
2024-01-03T07:58:00,hld,8.06
2024-01-03T07:59:00,hld,8.18
2024-01-03T08:00:00,hld,8.16
2024-01-03T08:01:00,hld,8.12
2024-01-03T08:02:00,hld,6.84
2024-01-03T08:03:00,hld,6.84
2024-01-03T08:04:00,hld,7.08
2024-01-03T08:05:00,hld,6.93
2024-01-03T08:06:00,hld,6.85
2024-01-03T08:07:00,hld,8.33
2024-01-03T08:08:00,hld,6.79
2024-01-03T08:09:00,hld,6.56
2024-01-03T08:10:00,hld,6.52
2024-01-03T08:11:00,hld,6.57
2024-01-03T08:12:00,hld,6.57
2024-01-03T08:13:00,hld,6.58
2024-01-03T08:14:00,hld,6.54
2024-01-03T08:15:00,hld,6.56
2024-01-03T08:16:00,hld,6.65
2024-01-03T08:17:00,hld,6.85
2024-01-03T08:18:00,hld,6.89
2024-01-03T08:19:00,hld,6.98
2024-01-03T08:20:00,hld,6.96
2024-01-03T08:21:00,hld,6.94
2024-01-03T08:22:00,hld,6.97
2024-01-03T08:23:00,hld,6.90
2024-01-03T08:24:00,hld,6.85
2024-01-03T08:25:00,hld,6.84
2024-01-03T08:26:00,hld,6.89
2024-01-03T08:27:00,hld,7.52
2024-01-03T08:28:00,hld,7.10
2024-01-03T08:29:00,hld,6.91
2024-01-03T08:30:00,hld,6.01
2024-01-03T08:31:00,hld,7.68
2024-01-03T08:32:00,hld,6.92
2024-01-03T08:33:00,hld,7.40
2024-01-03T08:34:00,hld,7.34
2024-01-03T08:35:00,hld,6.67
2024-01-03T08:36:00,hld,6.70
2024-01-03T08:37:00,hld,6.74
2024-01-03T08:38:00,hld,7.34
2024-01-03T08:39:00,hld,6.72
2024-01-03T08:40:00,hld,6.67
2024-01-03T08:41:00,hld,7.33
2024-01-03T08:42:00,hld,8.31
2024-01-03T08:43:00,hld,10.05
2024-01-03T08:44:00,hld,10.21
2024-01-03T08:45:00,hld,10.16
2024-01-03T08:46:00,hld,10.13
2024-01-03T08:47:00,hld,10.12
2024-01-03T08:48:00,hld,18.67
2024-01-03T08:49:00,hld,18.41
2024-01-03T08:50:00,hld,18.89
2024-01-03T08:51:00,hld,18.23
2024-01-03T08:52:00,hld,17.97
2024-01-03T08:53:00,hld,10.01
2024-01-03T08:54:00,hld,10.05
2024-01-03T08:55:00,hld,10.15
2024-01-03T08:56:00,hld,10.08
2024-01-03T08:57:00,hld,10.03
2024-01-03T08:58:00,hld,10.03
2024-01-03T08:59:00,hld,15.26
2024-01-03T09:00:00,hld,14.15
2024-01-03T09:01:00,hld,14.10
2024-01-03T09:02:00,hld,14.28
2024-01-03T09:03:00,hld,14.23
2024-01-03T09:04:00,hld,10.90
2024-01-03T09:05:00,hld,10.41
2024-01-03T09:06:00,hld,10.42
2024-01-03T09:07:00,hld,10.45
2024-01-03T09:08:00,hld,14.38
2024-01-03T09:09:00,hld,14.34
2024-01-03T09:10:00,hld,14.29
2024-01-03T09:11:00,hld,14.31
2024-01-03T09:12:00,hld,14.27
2024-01-03T09:13:00,hld,14.30
2024-01-03T09:14:00,hld,16.34
2024-01-03T09:15:00,hld,15.66
2024-01-03T09:16:00,hld,15.62
2024-01-03T09:17:00,hld,15.63
2024-01-03T09:18:00,hld,14.15
2024-01-03T09:19:00,hld,15.80
2024-01-03T09:20:00,hld,18.46
2024-01-03T09:21:00,hld,14.28
2024-01-03T09:22:00,hld,14.28
2024-01-03T09:23:00,hld,14.20
2024-01-03T09:24:00,hld,14.26
2024-01-03T09:25:00,hld,17.58
2024-01-03T09:26:00,hld,18.93
2024-01-03T09:27:00,hld,19.05
2024-01-03T09:28:00,hld,20.19
2024-01-03T09:29:00,hld,19.89
2024-01-03T09:30:00,hld,17.23
2024-01-03T09:31:00,hld,16.99
2024-01-03T09:32:00,hld,19.60
2024-01-03T09:33:00,hld,18.34
2024-01-03T09:34:00,hld,15.71
2024-01-03T09:35:00,hld,17.18
2024-01-03T09:36:00,hld,19.25
2024-01-03T09:37:00,hld,18.41
2024-01-03T09:38:00,hld,17.02
2024-01-03T09:39:00,hld,15.46
2024-01-03T09:40:00,hld,15.51
2024-01-03T09:41:00,hld,16.20
2024-01-03T09:42:00,hld,15.50
2024-01-03T09:43:00,hld,11.31
2024-01-03T09:44:00,hld,11.52
2024-01-03T09:45:00,hld,11.46
2024-01-03T09:46:00,hld,12.94
2024-01-03T09:47:00,hld,11.39
2024-01-03T09:48:00,hld,11.48
2024-01-03T09:49:00,hld,11.46
2024-01-03T09:50:00,hld,11.49
2024-01-03T09:51:00,hld,11.67
2024-01-03T09:52:00,hld,12.52
2024-01-03T09:53:00,hld,11.54
2024-01-03T09:54:00,hld,9.98
2024-01-03T09:55:00,hld,10.09
2024-01-03T09:56:00,hld,10.08
2024-01-03T09:57:00,hld,10.22
2024-01-03T09:58:00,hld,9.92
2024-01-03T09:59:00,hld,9.91
2024-01-03T10:00:00,hld,9.99
2024-01-03T10:01:00,hld,10.59
2024-01-03T10:02:00,hld,9.97
2024-01-03T10:03:00,hld,9.99
2024-01-03T10:04:00,hld,10.65
2024-01-03T10:05:00,hld,10.01
2024-01-03T10:06:00,hld,10.06
2024-01-03T10:07:00,hld,10.42
2024-01-03T10:08:00,hld,10.46
2024-01-03T10:09:00,hld,10.19
2024-01-03T10:10:00,hld,10.17
2024-01-03T10:11:00,hld,10.22
2024-01-03T10:12:00,hld,10.20
2024-01-03T10:13:00,hld,10.17
2024-01-03T10:14:00,hld,10.16
2024-01-03T10:15:00,hld,14.16
2024-01-03T10:16:00,hld,14.99
2024-01-03T10:17:00,hld,14.74
2024-01-03T10:18:00,hld,17.24
2024-01-03T10:19:00,hld,16.31
2024-01-03T10:20:00,hld,15.34
2024-01-03T10:21:00,hld,14.84
2024-01-03T10:22:00,hld,10.93
2024-01-03T10:23:00,hld,12.83
2024-01-03T10:24:00,hld,10.71
2024-01-03T10:25:00,hld,12.63
2024-01-03T10:26:00,hld,12.85
2024-01-03T10:27:00,hld,12.49
2024-01-03T10:28:00,hld,10.71
2024-01-03T10:29:00,hld,12.58
2024-01-03T10:30:00,hld,12.71
2024-01-03T10:31:00,hld,10.78
2024-01-03T10:32:00,hld,10.76
2024-01-03T10:33:00,hld,12.34
2024-01-03T10:34:00,hld,10.73
2024-01-03T10:35:00,hld,10.77
2024-01-03T10:36:00,hld,10.78
2024-01-03T10:37:00,hld,10.79
2024-01-03T10:38:00,hld,10.86
2024-01-03T10:39:00,hld,10.72
2024-01-03T10:40:00,hld,10.68
2024-01-03T10:41:00,hld,10.67
2024-01-03T10:42:00,hld,10.64
2024-01-03T10:43:00,hld,10.64
2024-01-03T10:44:00,hld,10.57
2024-01-03T10:45:00,hld,10.56
2024-01-03T10:46:00,hld,11.11
2024-01-03T10:47:00,hld,10.51
2024-01-03T10:48:00,hld,10.43
2024-01-03T10:49:00,hld,10.42
2024-01-03T10:50:00,hld,10.48
2024-01-03T10:51:00,hld,10.61
2024-01-03T10:52:00,hld,10.61
2024-01-03T10:53:00,hld,10.62
2024-01-03T10:54:00,hld,10.47
2024-01-03T10:55:00,hld,10.46
2024-01-03T10:56:00,hld,10.43
2024-01-03T10:57:00,hld,10.46
2024-01-03T10:58:00,hld,10.54
2024-01-03T10:59:00,hld,10.88
2024-01-03T11:00:00,hld,10.46
2024-01-03T11:01:00,hld,10.44
2024-01-03T11:02:00,hld,10.53
2024-01-03T11:03:00,hld,10.48
2024-01-03T11:04:00,hld,10.52
2024-01-03T11:05:00,hld,10.50
2024-01-03T11:06:00,hld,10.38
2024-01-03T11:07:00,hld,11.86
2024-01-03T11:08:00,hld,11.85
2024-01-03T11:09:00,hld,13.79
2024-01-03T11:10:00,hld,16.32
2024-01-03T11:11:00,hld,13.64
2024-01-03T11:12:00,hld,14.86
2024-01-03T11:13:00,hld,16.95
2024-01-03T11:14:00,hld,16.75
2024-01-03T11:15:00,hld,12.29
2024-01-03T11:16:00,hld,14.49
2024-01-03T11:17:00,hld,17.20
2024-01-03T11:18:00,hld,15.32
2024-01-03T11:19:00,hld,17.01
2024-01-03T11:20:00,hld,15.35
2024-01-03T11:21:00,hld,16.63
2024-01-03T11:22:00,hld,20.71
2024-01-03T11:23:00,hld,20.04
2024-01-03T11:24:00,hld,20.03
2024-01-03T11:25:00,hld,20.25
2024-01-03T11:26:00,hld,16.83
2024-01-03T11:27:00,hld,18.99
2024-01-03T11:28:00,hld,15.22
2024-01-03T11:29:00,hld,16.85
2024-01-03T11:30:00,hld,18.93
2024-01-03T11:31:00,hld,19.71
2024-01-03T11:32:00,hld,14.09
2024-01-03T11:33:00,hld,14.16
2024-01-03T11:34:00,hld,11.96
2024-01-03T11:35:00,hld,13.87
2024-01-03T11:36:00,hld,13.92
2024-01-03T11:37:00,hld,13.72
2024-01-03T11:38:00,hld,13.59
2024-01-03T11:39:00,hld,20.63
2024-01-03T11:40:00,hld,22.04
2024-01-03T11:41:00,hld,23.70
2024-01-03T11:42:00,hld,23.30
2024-01-03T11:43:00,hld,22.81
2024-01-03T11:44:00,hld,13.55
2024-01-03T11:45:00,hld,14.51
2024-01-03T11:46:00,hld,14.80
2024-01-03T11:47:00,hld,13.69
2024-01-03T11:48:00,hld,12.66
2024-01-03T11:49:00,hld,14.06
2024-01-03T11:50:00,hld,23.20
2024-01-03T11:51:00,hld,15.34
2024-01-03T11:52:00,hld,16.09
2024-01-03T11:53:00,hld,15.33
2024-01-03T11:54:00,hld,14.44
2024-01-03T11:55:00,hld,19.55
2024-01-03T11:56:00,hld,18.15
2024-01-03T11:57:00,hld,16.35
2024-01-03T11:58:00,hld,18.16
2024-01-03T11:59:00,hld,17.34
2024-01-03T12:00:00,hld,28.99
2024-01-03T12:01:00,hld,19.17
2024-01-03T12:02:00,hld,16.99
2024-01-03T12:03:00,hld,17.06
2024-01-03T12:04:00,hld,17.06
2024-01-03T12:05:00,hld,16.90
2024-01-03T12:06:00,hld,16.86
2024-01-03T12:07:00,hld,14.08
2024-01-03T12:08:00,hld,14.01
2024-01-03T12:09:00,hld,15.70
2024-01-03T12:10:00,hld,15.92
2024-01-03T12:11:00,hld,16.77
2024-01-03T12:12:00,hld,16.60
2024-01-03T12:13:00,hld,16.55
2024-01-03T12:14:00,hld,16.56
2024-01-03T12:15:00,hld,16.33
2024-01-03T12:16:00,hld,16.27
2024-01-03T12:17:00,hld,12.23
2024-01-03T12:18:00,hld,11.11
2024-01-03T12:19:00,hld,11.04
2024-01-03T12:20:00,hld,11.10
2024-01-03T12:21:00,hld,10.79
2024-01-03T12:22:00,hld,10.58
2024-01-03T12:23:00,hld,11.11
2024-01-03T12:24:00,hld,10.53
2024-01-03T12:25:00,hld,10.62
2024-01-03T12:26:00,hld,10.65
2024-01-03T12:27:00,hld,10.65
2024-01-03T12:28:00,hld,10.71
2024-01-03T12:29:00,hld,10.66
2024-01-03T12:30:00,hld,10.67
2024-01-03T12:31:00,hld,10.72
2024-01-03T12:32:00,hld,10.73
2024-01-03T12:33:00,hld,10.46
2024-01-03T12:34:00,hld,10.41
2024-01-03T12:35:00,hld,10.86
2024-01-03T12:36:00,hld,11.06
2024-01-03T12:37:00,hld,11.08
2024-01-03T12:38:00,hld,11.11
2024-01-03T12:39:00,hld,12.57
2024-01-03T12:40:00,hld,11.08
2024-01-03T12:41:00,hld,10.93
2024-01-03T12:42:00,hld,10.96
2024-01-03T12:43:00,hld,10.94
2024-01-03T12:44:00,hld,10.93
2024-01-03T12:45:00,hld,11.11
2024-01-03T12:46:00,hld,11.10
2024-01-03T12:47:00,hld,11.06
2024-01-03T12:48:00,hld,11.07
2024-01-03T12:49:00,hld,10.94
2024-01-03T12:50:00,hld,10.63
2024-01-03T12:51:00,hld,10.65
2024-01-03T12:52:00,hld,11.06
2024-01-03T12:53:00,hld,7.69
2024-01-03T12:54:00,hld,7.60
2024-01-03T12:55:00,hld,7.66
2024-01-03T12:56:00,hld,7.63
2024-01-03T12:57:00,hld,7.42
2024-01-03T12:58:00,hld,7.60
2024-01-03T12:59:00,hld,7.53
2024-01-03T13:00:00,hld,7.58
2024-01-03T13:01:00,hld,7.83
2024-01-03T13:02:00,hld,7.60
2024-01-03T13:03:00,hld,7.57
2024-01-03T13:04:00,hld,7.61
2024-01-03T13:05:00,hld,7.65
2024-01-03T13:06:00,hld,7.78
2024-01-03T13:07:00,hld,7.77
2024-01-03T13:08:00,hld,7.79
2024-01-03T13:09:00,hld,7.79
2024-01-03T13:10:00,hld,7.80
2024-01-03T13:11:00,hld,7.76
2024-01-03T13:12:00,hld,7.79
2024-01-03T13:13:00,hld,7.80
2024-01-03T13:14:00,hld,8.10
2024-01-03T13:15:00,hld,7.65
2024-01-03T13:16:00,hld,7.72
2024-01-03T13:17:00,hld,7.68
2024-01-03T13:18:00,hld,7.72
2024-01-03T13:19:00,hld,11.73
2024-01-03T13:20:00,hld,11.55
2024-01-03T13:21:00,hld,11.65
2024-01-03T13:22:00,hld,11.60
2024-01-03T13:23:00,hld,11.54
2024-01-03T13:24:00,hld,11.52
2024-01-03T13:25:00,hld,7.56
2024-01-03T13:26:00,hld,7.41
2024-01-03T13:27:00,hld,7.39
2024-01-03T13:28:00,hld,7.94
2024-01-03T13:29:00,hld,7.36
2024-01-03T13:30:00,hld,7.38
2024-01-03T13:31:00,hld,7.63
2024-01-03T13:32:00,hld,7.61
2024-01-03T13:33:00,hld,7.46
2024-01-03T13:34:00,hld,7.42
2024-01-03T13:35:00,hld,7.43
2024-01-03T13:36:00,hld,7.50
2024-01-03T13:37:00,hld,7.89
2024-01-03T13:38:00,hld,7.91
2024-01-03T13:39:00,hld,7.91